Location: Buch
(49.7331°N, 12.1098°E)
Time: 00:07:45
(UTC+00:00)

Cosmos 1328 Rocket - Pass Details

Date: 12 May 2021
Orbit: 601 x 627 km, 82.5° (Epoch: 23 June)

Event Time Altitude Azimuth Distance (km) Brightness Sun altitude
Exits shadow 19:22:29 - 167° (SSE) 2,926 6.6 -5.7°
Rises 19:22:33 0° 167° (SSE) 2,900 6.5 -5.7°
Reaches altitude 10° 19:24:53 10° 159° (SSE) 1,996 5.7 -6.0°
Maximum altitude 19:28:58 38° 92° (E) 961 4.2 -6.5°
Drops below altitude 10° 19:33:03 10° 24° (NNE) 2,000 6.4 -7.1°
Sets 19:35:24 0° 17° (NNE) 2,906 7.3 -7.3°
